This is the latest recevied weather packets stored in our database for station/object DM3DP. If no packets are shown the sender has not sent any weather packets the latest 10 day(s).
| Time | Temp. | Humidity | Pressure | Rain* | Wind** | Luminosity | Snow |
|---|---|---|---|---|---|---|---|
| 1777208425 | 17.78° C | 41% | 1022.3 hPa | 0 mm | - | 702 W/m² | - |
| 1777208094 | 17.22° C | 41% | 1022.3 hPa | 0 mm | - | 677 W/m² | - |
| 1777207764 | 17.22° C | 41% | 1022.4 hPa | 0 mm | - | 668 W/m² | - |
| 1777207435 | 17.22° C | 40% | 1022.4 hPa | 0 mm | - | 677 W/m² | - |
| 1777207105 | 17.22° C | 42% | 1022.5 hPa | 0 mm | - | 683 W/m² | - |
| 1777206775 | 17.22° C | 42% | 1022.4 hPa | 0 mm | - | 692 W/m² | - |
| 1777206444 | 17.22° C | 43% | 1022.5 hPa | 0 mm | - | 698 W/m² | - |
| 1777206114 | 17.22° C | 42% | 1022.6 hPa | 0 mm | - | 701 W/m² | - |
| 1777205785 | 17.22° C | 41% | 1022.5 hPa | 0 mm | - | 707 W/m² | - |
| 1777205454 | 17.22° C | 41% | 1022.5 hPa | 0 mm | - | 713 W/m² | - |
| 1777205124 | 16.11° C | 42% | 1022.5 hPa | 0 mm | - | 725 W/m² | - |
| 1777204795 | 16.11° C | 42% | 1022.5 hPa | 0 mm | - | 728 W/m² | - |
| 1777204465 | 16.11° C | 43% | 1022.6 hPa | 0 mm | - | 733 W/m² | - |
| 1777204134 | 16.11° C | 45% | 1022.6 hPa | 0 mm | - | 737 W/m² | - |
| 1777203805 | 15.56° C | 43% | 1022.6 hPa | 0 mm | - | 739 W/m² | - |
| 1777203475 | 15.56° C | 43% | 1022.7 hPa | 0 mm | - | 740 W/m² | - |
| 1777203145 | 15.56° C | 43% | 1022.8 hPa | 0 mm | - | 742 W/m² | - |
| 1777202815 | 15.56° C | 44% | 1022.8 hPa | 0 mm | - | 744 W/m² | - |
| 1777202484 | 15.56° C | 44% | 1022.8 hPa | 0 mm | - | 629 W/m² | - |
| 1777202154 | 15.56° C | 45% | 1022.8 hPa | 0 mm | - | 419 W/m² | - |
| 1777201825 | 15° C | 48% | 1022.8 hPa | 0 mm | - | 751 W/m² | - |
| 1777201494 | 15° C | 48% | 1023 hPa | 0 mm | - | 750 W/m² | - |
| 1777201164 | 15° C | 49% | 1023 hPa | 0 mm | - | 746 W/m² | - |
| 1777200834 | 15° C | 49% | 1023 hPa | 0 mm | - | 760 W/m² | - |
| 1777200504 | 15° C | 49% | 1023.1 hPa | 0 mm | - | 751 W/m² | - |
* Rain latest hour (hover to see other rain measurements)
** Current wind speed in m/s (hover to see current wind gust speed)